User: anonymous   Login
Location: Iesi
(43.5167°N, 13.2333°E)
Time: 06:57:24
(UTC+00:00)
Language:

Cosmos 1980 Rocket - Orbit

View from above orbital plane
View from above orbital plane
View from above satellite
View from above satellite

Ground track
Ground track

The orbit data is extracted from the following two-line orbital elements,

1 19650U 88102B   20293.83381012 -.00000051 +00000-0 -15414-5 0  9990
2 19650 071.0005 328.3638 0012336 131.1930 229.0259 14.15796438648489
Epoch (UTC): 19 October 2020 20:00:41
Eccentricity: 0.0012336
inclination: 71.0005°
perigee height: 831 km
apogee height: 848 km
right ascension of ascending node: 328.3638°
argument of perigee: 131.1930°
revolutions per day: 14.15796438
mean anomaly at epoch: 229.0259°
orbit number at epoch: 64848

The dashed part of the orbit path shows where the satellite is in the earth's shadow,  

DLR